Year,Month,Day,Hour,Minute,Value (Times are PST for temperature in C)
2008,08,31,00,00,9.20
2008,08,31,00,01,9.20
2008,08,31,00,02,9.20
2008,08,31,00,03,9.20
2008,08,31,00,04,9.20
2008,08,31,00,05,9.20
2008,08,31,00,06,9.20
2008,08,31,00,07,9.20
2008,08,31,00,08,9.20
2008,08,31,00,09,9.20
2008,08,31,00,10,9.20
2008,08,31,00,11,9.20
2008,08,31,00,12,9.20
2008,08,31,01,02,8.90
2008,08,31,01,03,8.90
2008,08,31,01,04,8.90
2008,08,31,01,05,8.90
2008,08,31,01,06,8.80
2008,08,31,01,07,8.80
2008,08,31,01,08,8.80
2008,08,31,01,09,8.80
2008,08,31,01,10,8.80
2008,08,31,01,11,8.80
2008,08,31,01,12,8.80
2008,08,31,01,13,8.80
2008,08,31,01,14,8.80
2008,08,31,01,15,8.80
2008,08,31,01,16,8.70
2008,08,31,01,17,8.70
2008,08,31,01,18,8.70
2008,08,31,01,19,8.70
2008,08,31,01,20,8.70
2008,08,31,01,21,8.70
2008,08,31,01,22,8.70
2008,08,31,01,23,8.70
2008,08,31,01,24,8.70
2008,08,31,01,25,8.70
2008,08,31,01,26,8.70
2008,08,31,01,27,8.70
2008,08,31,01,28,8.70
2008,08,31,01,29,8.70
2008,08,31,01,30,8.70
2008,08,31,01,31,8.70
2008,08,31,01,32,8.70
2008,08,31,01,33,8.70
2008,08,31,01,34,8.70
2008,08,31,01,35,8.70
2008,08,31,01,36,8.70
2008,08,31,01,37,8.70
2008,08,31,01,38,8.70
2008,08,31,01,39,8.70
2008,08,31,01,40,8.70
2008,08,31,01,41,8.70
2008,08,31,01,42,8.70
2008,08,31,01,43,8.70
2008,08,31,01,44,8.70
2008,08,31,01,45,8.70
2008,08,31,01,46,8.70
2008,08,31,01,47,8.70
2008,08,31,01,48,8.70
2008,08,31,01,49,8.70
2008,08,31,01,50,8.70
2008,08,31,01,51,8.70
2008,08,31,01,52,8.70
2008,08,31,01,53,8.70
2008,08,31,01,54,8.70
2008,08,31,01,55,8.70
2008,08,31,01,56,8.70
2008,08,31,01,57,8.70
2008,08,31,01,58,8.70
2008,08,31,01,59,8.70
2008,08,31,02,00,8.70
2008,08,31,02,01,8.70
2008,08,31,02,02,8.70
2008,08,31,02,03,8.70
2008,08,31,02,04,8.70
2008,08,31,02,05,8.70
2008,08,31,02,06,8.70
2008,08,31,02,07,8.70
2008,08,31,02,08,8.80
2008,08,31,02,09,8.80
2008,08,31,02,10,8.80
2008,08,31,02,11,8.80
2008,08,31,02,12,8.80
2008,08,31,02,13,8.80
2008,08,31,02,14,8.80
2008,08,31,02,15,8.80
2008,08,31,02,16,8.80
2008,08,31,02,17,8.80
2008,08,31,02,18,8.80
2008,08,31,02,19,8.90
2008,08,31,02,20,8.90
2008,08,31,02,21,8.90
2008,08,31,02,22,8.90
2008,08,31,02,23,8.90
2008,08,31,02,24,8.90
2008,08,31,02,25,8.90
2008,08,31,02,26,8.90
2008,08,31,02,27,8.90
2008,08,31,02,28,8.90
2008,08,31,02,29,8.90
2008,08,31,02,30,8.90
2008,08,31,02,31,8.90
2008,08,31,02,32,8.90
2008,08,31,02,33,9.00
2008,08,31,02,34,9.00
2008,08,31,02,35,9.00
2008,08,31,02,36,9.00
2008,08,31,02,37,9.00
2008,08,31,02,38,9.00
2008,08,31,02,39,9.00
2008,08,31,02,40,9.00
2008,08,31,02,41,9.00
2008,08,31,02,42,9.00
2008,08,31,02,43,9.10
2008,08,31,02,44,9.10
2008,08,31,02,45,9.10
2008,08,31,02,46,9.10
2008,08,31,02,47,9.10
2008,08,31,02,48,9.10
2008,08,31,02,49,9.10
2008,08,31,02,50,9.10
2008,08,31,02,51,9.10
2008,08,31,02,52,9.10
2008,08,31,02,53,9.20
2008,08,31,02,54,9.20
2008,08,31,02,55,9.20
2008,08,31,02,56,9.20
2008,08,31,02,57,9.20
2008,08,31,02,58,9.20
2008,08,31,02,59,9.20
2008,08,31,03,00,9.20
2008,08,31,03,01,9.20
2008,08,31,03,02,9.20
2008,08,31,03,03,9.20
2008,08,31,03,04,9.20
2008,08,31,03,05,9.20
2008,08,31,03,06,9.20
2008,08,31,03,07,9.20
2008,08,31,03,08,9.20
2008,08,31,03,09,9.20
2008,08,31,03,10,9.20
2008,08,31,03,11,9.20
2008,08,31,03,12,9.30
2008,08,31,03,13,9.30
2008,08,31,03,14,9.30
2008,08,31,03,15,9.30
2008,08,31,03,16,9.30
2008,08,31,03,17,9.30
2008,08,31,03,18,9.30
2008,08,31,03,19,9.40
2008,08,31,03,20,9.40
2008,08,31,03,21,9.40
2008,08,31,03,22,9.40
2008,08,31,03,23,9.40
2008,08,31,03,24,9.40
2008,08,31,03,25,9.40
2008,08,31,03,26,9.40
2008,08,31,03,27,9.40
2008,08,31,03,28,9.40
2008,08,31,03,29,9.40
2008,08,31,03,30,9.40
2008,08,31,03,31,9.50
2008,08,31,03,32,9.50
2008,08,31,03,33,9.50
2008,08,31,03,34,9.50
2008,08,31,03,35,9.50
2008,08,31,03,36,9.50
2008,08,31,03,37,9.50
2008,08,31,03,38,9.50
2008,08,31,03,39,9.50
2008,08,31,03,40,9.50
2008,08,31,03,41,9.50
2008,08,31,03,42,9.50
2008,08,31,03,43,9.50
2008,08,31,03,44,9.50
2008,08,31,03,45,9.50
2008,08,31,03,46,9.50
2008,08,31,03,47,9.50
2008,08,31,03,48,9.50
2008,08,31,03,49,9.50
2008,08,31,03,50,9.50
2008,08,31,03,51,9.50
2008,08,31,03,52,9.50
2008,08,31,03,53,9.50
2008,08,31,03,54,9.50
2008,08,31,03,55,9.50
2008,08,31,03,56,9.50
2008,08,31,03,57,9.50
2008,08,31,03,58,9.50
2008,08,31,03,59,9.50
2008,08,31,04,00,9.50
2008,08,31,04,01,9.50
2008,08,31,04,02,9.50
2008,08,31,04,03,9.50
2008,08,31,04,04,9.50
2008,08,31,04,05,9.50
2008,08,31,04,06,9.50
2008,08,31,04,07,9.50
2008,08,31,04,08,9.50
2008,08,31,04,09,9.50
2008,08,31,04,10,9.60
2008,08,31,04,11,9.60
2008,08,31,04,12,9.60
2008,08,31,04,13,9.60
2008,08,31,04,14,9.60
2008,08,31,04,15,9.60
2008,08,31,04,16,9.60
2008,08,31,04,17,9.60
2008,08,31,04,18,9.70
2008,08,31,04,19,9.70
2008,08,31,04,20,9.70
2008,08,31,04,21,9.70
2008,08,31,04,22,9.70
2008,08,31,04,23,9.70
2008,08,31,04,24,9.70
2008,08,31,04,25,9.70
2008,08,31,04,26,9.70
2008,08,31,04,27,9.70
2008,08,31,04,28,9.70
2008,08,31,04,29,9.70
2008,08,31,04,30,9.70
2008,08,31,04,31,9.70
2008,08,31,04,32,9.70
2008,08,31,04,33,9.70
2008,08,31,04,34,9.70
2008,08,31,04,35,9.80
2008,08,31,04,36,9.80
2008,08,31,04,37,9.80
2008,08,31,04,38,9.80
2008,08,31,04,39,9.90
2008,08,31,04,40,9.90
2008,08,31,04,41,9.90
2008,08,31,04,42,9.90
2008,08,31,04,43,9.90
2008,08,31,04,44,9.90
2008,08,31,04,45,9.90
2008,08,31,04,46,9.90
2008,08,31,04,47,9.90
2008,08,31,04,48,9.90
2008,08,31,04,49,9.90
2008,08,31,04,50,9.90
2008,08,31,04,51,10.00
2008,08,31,04,52,10.10
2008,08,31,04,53,10.10
2008,08,31,04,54,10.10
2008,08,31,04,55,10.10
2008,08,31,04,56,10.10
2008,08,31,04,57,10.10
2008,08,31,04,58,10.20
2008,08,31,04,59,10.20
2008,08,31,05,00,10.20
2008,08,31,05,01,10.30
2008,08,31,05,02,10.30
2008,08,31,05,03,10.30
2008,08,31,05,04,10.30
2008,08,31,05,05,10.40
2008,08,31,05,06,10.40
2008,08,31,05,07,10.40
2008,08,31,05,08,10.40
2008,08,31,05,09,10.50
2008,08,31,05,10,10.60
2008,08,31,05,11,10.60
2008,08,31,05,12,10.60
2008,08,31,05,13,10.60
2008,08,31,05,14,10.60
2008,08,31,05,15,10.60
2008,08,31,05,16,10.70
2008,08,31,05,17,10.70
2008,08,31,05,18,10.70
2008,08,31,05,19,10.80
2008,08,31,05,20,10.80
2008,08,31,05,21,10.90
2008,08,31,05,22,10.90
2008,08,31,05,23,10.90
2008,08,31,05,24,10.90
2008,08,31,05,25,10.90
2008,08,31,05,26,10.90
2008,08,31,05,27,10.90
2008,08,31,05,28,10.90
2008,08,31,05,29,10.90
2008,08,31,05,30,10.90
2008,08,31,05,31,10.90
2008,08,31,05,32,10.90
2008,08,31,05,33,10.90
2008,08,31,05,34,10.90
2008,08,31,05,35,11.00
2008,08,31,05,36,11.10
2008,08,31,05,37,11.10
2008,08,31,05,38,11.10
2008,08,31,05,39,11.10
2008,08,31,05,40,11.10
2008,08,31,05,41,11.10
2008,08,31,05,42,11.10
2008,08,31,05,43,11.10
2008,08,31,05,44,11.10
2008,08,31,05,45,11.10
2008,08,31,05,46,11.10
2008,08,31,05,47,11.10
2008,08,31,05,48,11.10
2008,08,31,05,49,11.10
2008,08,31,05,50,11.20
2008,08,31,05,51,11.20
2008,08,31,05,52,11.20
2008,08,31,05,53,11.20
2008,08,31,05,54,11.20
2008,08,31,05,55,11.20
2008,08,31,05,56,11.20
2008,08,31,05,57,11.20
2008,08,31,05,58,11.20
2008,08,31,05,59,11.20
2008,08,31,06,00,11.20
2008,08,31,06,01,11.20
2008,08,31,06,02,11.20
2008,08,31,06,03,11.20
2008,08,31,06,04,11.20
2008,08,31,06,05,11.20
2008,08,31,06,06,11.20
2008,08,31,06,07,11.20
2008,08,31,06,08,11.20
2008,08,31,06,09,11.20
2008,08,31,06,10,11.20
2008,08,31,06,11,11.20
2008,08,31,06,12,11.20
2008,08,31,06,13,11.20
2008,08,31,06,14,11.20
2008,08,31,06,15,11.30
2008,08,31,06,16,11.30
2008,08,31,06,17,11.30
2008,08,31,06,18,11.30
2008,08,31,06,19,11.30
2008,08,31,06,20,11.30
2008,08,31,06,21,11.30
2008,08,31,06,22,11.30
2008,08,31,06,23,11.30
2008,08,31,06,24,11.30
2008,08,31,06,25,11.30
2008,08,31,06,26,11.30
2008,08,31,06,27,11.30
2008,08,31,06,28,11.30
2008,08,31,06,29,11.30
2008,08,31,06,30,11.30
2008,08,31,06,31,11.30
2008,08,31,06,32,11.30
2008,08,31,06,33,11.30
2008,08,31,06,34,11.30
2008,08,31,06,35,11.30
2008,08,31,06,36,11.30
2008,08,31,06,37,11.30
2008,08,31,06,38,11.30
2008,08,31,06,39,11.30
2008,08,31,06,40,11.30
2008,08,31,06,41,11.30
2008,08,31,06,42,11.30
2008,08,31,06,43,11.30
2008,08,31,06,44,11.30
2008,08,31,06,45,11.30
2008,08,31,06,46,11.30
2008,08,31,06,47,11.30
2008,08,31,06,48,11.30
2008,08,31,06,49,11.30
2008,08,31,06,50,11.30
2008,08,31,06,51,11.30
2008,08,31,06,52,11.30
2008,08,31,06,53,11.40
2008,08,31,06,54,11.40
2008,08,31,06,55,11.40
2008,08,31,06,56,11.40
2008,08,31,06,57,11.40
2008,08,31,06,58,11.40
2008,08,31,06,59,11.40
2008,08,31,07,00,11.40
2008,08,31,07,01,11.40
2008,08,31,07,02,11.40
2008,08,31,07,03,11.40
2008,08,31,07,04,11.40
2008,08,31,07,05,11.40
2008,08,31,07,06,11.40
2008,08,31,07,07,11.50
2008,08,31,07,08,11.60
2008,08,31,07,09,11.60
2008,08,31,07,10,11.60
2008,08,31,07,11,11.60
2008,08,31,07,12,11.60
2008,08,31,07,13,11.60
2008,08,31,07,14,11.60
2008,08,31,07,15,11.60
2008,08,31,07,16,11.60
2008,08,31,07,17,11.60
2008,08,31,07,18,11.60
2008,08,31,07,19,11.60
2008,08,31,07,20,11.60
2008,08,31,07,21,11.70
2008,08,31,07,22,11.70
2008,08,31,07,23,11.70
2008,08,31,07,24,11.70
2008,08,31,07,25,11.70
2008,08,31,07,26,11.70
2008,08,31,07,27,11.80
2008,08,31,07,28,11.80
2008,08,31,07,29,11.80
2008,08,31,07,30,11.80
2008,08,31,07,31,11.80
2008,08,31,07,32,11.80
2008,08,31,07,33,11.80
2008,08,31,07,34,11.80
2008,08,31,07,35,11.80
2008,08,31,07,36,11.80
2008,08,31,07,37,11.80
2008,08,31,07,38,11.80
2008,08,31,07,39,11.80
2008,08,31,07,40,11.80
2008,08,31,07,41,11.80
2008,08,31,07,42,11.80
2008,08,31,07,43,11.80
2008,08,31,07,44,11.80
2008,08,31,07,45,11.80
2008,08,31,07,46,11.80
2008,08,31,07,47,11.80
2008,08,31,07,48,11.80
2008,08,31,07,49,11.80
2008,08,31,07,50,11.80
2008,08,31,07,51,11.80
2008,08,31,07,52,11.80
2008,08,31,07,53,11.80
2008,08,31,07,54,11.80
2008,08,31,07,55,11.80
2008,08,31,07,56,11.80
2008,08,31,07,57,11.80
2008,08,31,07,58,11.80
2008,08,31,07,59,11.80
2008,08,31,08,00,11.80
2008,08,31,08,01,11.80
2008,08,31,08,02,11.80
2008,08,31,08,03,11.80
2008,08,31,08,04,11.80
2008,08,31,08,05,11.80
2008,08,31,08,06,11.80
2008,08,31,08,07,11.80
2008,08,31,08,08,11.80
2008,08,31,08,09,11.80
2008,08,31,08,10,11.80
2008,08,31,08,11,11.80
2008,08,31,08,12,11.80
2008,08,31,08,13,11.80
2008,08,31,08,14,11.80
2008,08,31,08,15,11.80
2008,08,31,08,16,11.80
2008,08,31,08,17,11.80
2008,08,31,08,18,11.80
2008,08,31,08,19,11.80
2008,08,31,08,20,11.80
2008,08,31,08,21,11.80
2008,08,31,08,22,11.80
2008,08,31,08,23,11.80
2008,08,31,08,24,11.90
2008,08,31,08,25,11.90
2008,08,31,08,26,11.90
2008,08,31,08,27,11.90
2008,08,31,08,28,11.90
2008,08,31,08,29,11.90
2008,08,31,08,30,11.90
2008,08,31,08,31,11.90
2008,08,31,08,32,12.00
2008,08,31,08,33,12.00
2008,08,31,08,34,12.00
2008,08,31,08,35,12.00
2008,08,31,08,36,12.00
2008,08,31,08,37,12.00
2008,08,31,08,38,12.00
2008,08,31,08,39,12.00
2008,08,31,08,40,12.10
2008,08,31,08,41,12.10
2008,08,31,08,42,12.10
2008,08,31,08,43,12.10
2008,08,31,08,44,12.10
2008,08,31,08,45,12.20
2008,08,31,08,46,12.20
2008,08,31,08,47,12.20
2008,08,31,08,48,12.20
2008,08,31,08,49,12.20
2008,08,31,08,50,12.20
2008,08,31,08,51,12.30
2008,08,31,08,52,12.30
2008,08,31,08,53,12.30
2008,08,31,08,54,12.30
2008,08,31,08,55,12.30
2008,08,31,08,56,12.30
2008,08,31,08,57,12.30
2008,08,31,08,58,12.30
2008,08,31,08,59,12.30
2008,08,31,09,00,12.30
2008,08,31,09,01,12.30
2008,08,31,09,02,12.30
2008,08,31,09,03,12.30
2008,08,31,09,04,12.30
2008,08,31,09,05,12.30
2008,08,31,09,06,12.30
2008,08,31,09,07,12.40
2008,08,31,09,08,12.40
2008,08,31,09,09,12.50
2008,08,31,09,10,12.50
2008,08,31,09,11,12.50
2008,08,31,09,12,12.50
2008,08,31,09,13,12.60
2008,08,31,09,14,12.60
2008,08,31,09,15,12.60
2008,08,31,09,16,12.60
2008,08,31,09,17,12.60
2008,08,31,09,18,12.70
2008,08,31,09,19,12.70
2008,08,31,09,20,12.70
2008,08,31,09,21,12.70
2008,08,31,09,22,12.70
2008,08,31,09,23,12.70
2008,08,31,09,24,12.70
2008,08,31,09,25,12.70
2008,08,31,09,26,12.70
2008,08,31,09,27,12.70
2008,08,31,09,28,12.70
2008,08,31,09,29,12.80
2008,08,31,09,30,12.80
2008,08,31,09,31,12.80
2008,08,31,09,32,12.80
2008,08,31,09,33,12.80
2008,08,31,09,34,12.80
2008,08,31,09,35,12.80
2008,08,31,09,36,12.80
2008,08,31,09,37,12.80
2008,08,31,09,38,12.80
2008,08,31,09,39,12.90
2008,08,31,09,40,12.90
2008,08,31,09,41,12.90
2008,08,31,09,42,12.90
2008,08,31,09,43,12.90
2008,08,31,09,44,12.90
2008,08,31,09,45,13.00
2008,08,31,09,46,13.00
2008,08,31,09,47,13.00
2008,08,31,09,48,13.00
2008,08,31,09,49,13.00
2008,08,31,09,50,13.00
2008,08,31,09,51,13.10
2008,08,31,09,52,13.10
2008,08,31,09,53,13.10
2008,08,31,09,54,13.10
2008,08,31,09,55,13.10
2008,08,31,09,56,13.10
2008,08,31,09,57,13.20
2008,08,31,09,58,13.20
2008,08,31,09,59,13.20
2008,08,31,10,00,13.20
2008,08,31,10,01,13.20
2008,08,31,10,02,13.20
2008,08,31,10,03,13.20
2008,08,31,10,04,13.30
2008,08,31,10,05,13.30
2008,08,31,10,06,13.30
2008,08,31,10,07,13.30
2008,08,31,10,08,13.30
2008,08,31,10,09,13.30
2008,08,31,10,10,13.30
2008,08,31,10,11,13.30
2008,08,31,10,12,13.30
2008,08,31,10,13,13.30
2008,08,31,10,14,13.30
2008,08,31,10,15,13.30
2008,08,31,10,16,13.30
2008,08,31,10,17,13.30
2008,08,31,10,18,13.30
2008,08,31,10,19,13.30
2008,08,31,10,20,13.40
2008,08,31,10,21,13.40
2008,08,31,10,22,13.40
2008,08,31,10,23,13.40
2008,08,31,10,24,13.40
2008,08,31,10,25,13.40
2008,08,31,10,26,13.50
2008,08,31,10,27,13.50
2008,08,31,10,28,13.50
2008,08,31,10,29,13.50
2008,08,31,10,30,13.50
2008,08,31,10,31,13.60
2008,08,31,10,32,13.60
2008,08,31,10,33,13.60
2008,08,31,10,34,13.60
2008,08,31,10,35,13.60
2008,08,31,10,36,13.60
2008,08,31,10,37,13.70
2008,08,31,10,38,13.70
2008,08,31,10,39,13.70
2008,08,31,10,40,13.70
2008,08,31,10,41,13.70
2008,08,31,10,42,13.80
2008,08,31,10,43,13.80
2008,08,31,10,44,13.80
2008,08,31,10,45,13.80
2008,08,31,10,46,13.90
2008,08,31,10,47,13.90
2008,08,31,10,48,14.00
2008,08,31,10,49,14.00
2008,08,31,10,50,14.10
2008,08,31,10,51,14.20
2008,08,31,10,52,14.30
2008,08,31,10,53,14.40
2008,08,31,10,54,14.40
2008,08,31,10,55,14.40
2008,08,31,10,56,14.40
2008,08,31,10,57,14.40
2008,08,31,10,58,14.50
2008,08,31,10,59,14.50
2008,08,31,11,00,14.50
2008,08,31,11,01,14.50
2008,08,31,11,02,14.50
2008,08,31,11,03,14.50
2008,08,31,11,04,14.40
2008,08,31,11,05,14.30
2008,08,31,11,06,14.30
2008,08,31,11,07,14.30
2008,08,31,11,08,14.30
2008,08,31,11,09,14.30
2008,08,31,11,10,14.30
2008,08,31,11,11,14.30
2008,08,31,11,12,14.30
2008,08,31,11,13,14.30
2008,08,31,11,14,14.40
2008,08,31,11,15,14.40
2008,08,31,11,16,14.50
2008,08,31,11,17,14.50
2008,08,31,11,18,14.60
2008,08,31,11,19,14.50
2008,08,31,11,20,14.50
2008,08,31,11,21,14.50
2008,08,31,11,22,14.50
2008,08,31,11,23,14.50
2008,08,31,11,24,14.50
2008,08,31,11,25,14.50
2008,08,31,11,26,14.50
2008,08,31,11,27,14.60
2008,08,31,11,28,14.60
2008,08,31,11,29,14.60
2008,08,31,11,30,14.60
2008,08,31,11,31,14.60
2008,08,31,11,32,14.60
2008,08,31,11,33,14.60
2008,08,31,11,34,14.60
2008,08,31,11,35,14.70
2008,08,31,11,36,14.70
2008,08,31,11,37,14.80
2008,08,31,11,38,14.80
2008,08,31,11,39,14.80
2008,08,31,11,40,14.80
2008,08,31,11,41,14.90
2008,08,31,11,42,14.90
2008,08,31,11,43,14.90
2008,08,31,11,44,14.90
2008,08,31,11,45,14.90
2008,08,31,11,46,14.90
2008,08,31,11,47,14.90
2008,08,31,11,48,14.90
2008,08,31,11,49,15.00
2008,08,31,11,50,15.10
2008,08,31,11,51,15.10
2008,08,31,11,52,15.10
2008,08,31,11,53,15.20
2008,08,31,11,54,15.30
2008,08,31,11,55,15.30
2008,08,31,11,56,15.40
2008,08,31,11,57,15.40
2008,08,31,11,58,15.50
2008,08,31,11,59,15.60
2008,08,31,12,00,15.70
2008,08,31,12,01,15.90
2008,08,31,12,02,16.00
2008,08,31,12,03,16.10
2008,08,31,12,04,16.10
2008,08,31,12,05,16.10
2008,08,31,12,06,16.10
2008,08,31,12,07,16.10
2008,08,31,12,08,16.10
2008,08,31,12,09,16.10
2008,08,31,12,10,15.90
2008,08,31,12,11,16.10
2008,08,31,12,12,16.10
2008,08,31,12,13,16.10
2008,08,31,12,14,16.10
2008,08,31,12,15,16.10
2008,08,31,12,16,16.10
2008,08,31,12,17,16.10
2008,08,31,12,18,16.10
2008,08,31,12,19,16.00
2008,08,31,12,20,16.00
2008,08,31,12,21,16.10
2008,08,31,12,22,16.10
2008,08,31,12,23,16.10
2008,08,31,12,24,16.10
2008,08,31,12,25,16.10
2008,08,31,12,26,16.10
2008,08,31,12,27,16.10
2008,08,31,12,28,16.10
2008,08,31,12,29,16.10
2008,08,31,12,30,16.10
2008,08,31,12,31,16.10
2008,08,31,12,32,16.10
2008,08,31,12,33,16.10
2008,08,31,12,34,16.10
2008,08,31,12,35,16.10
2008,08,31,12,36,16.10
2008,08,31,12,37,16.10
2008,08,31,12,38,16.10
2008,08,31,12,39,15.90
2008,08,31,12,40,15.90
2008,08,31,12,41,15.90
2008,08,31,12,42,15.80
2008,08,31,12,43,15.80
2008,08,31,12,44,15.80
2008,08,31,12,45,15.80
2008,08,31,12,46,15.80
2008,08,31,12,47,15.80
2008,08,31,12,48,15.80
2008,08,31,12,49,15.80
2008,08,31,12,50,15.70
2008,08,31,12,51,15.70
2008,08,31,12,52,15.70
2008,08,31,12,53,15.70
2008,08,31,12,54,15.80
2008,08,31,12,55,15.80
2008,08,31,12,56,15.80
2008,08,31,12,57,15.90
2008,08,31,12,58,15.90
2008,08,31,12,59,16.10
2008,08,31,13,00,16.10
2008,08,31,13,01,16.10
2008,08,31,13,02,16.10
2008,08,31,13,03,16.10
2008,08,31,13,04,16.00
2008,08,31,13,05,15.90
2008,08,31,13,06,15.90
2008,08,31,13,07,16.00
2008,08,31,13,08,16.10
2008,08,31,13,09,16.10
2008,08,31,13,10,16.10
2008,08,31,13,11,16.10
2008,08,31,13,12,16.10
2008,08,31,13,13,16.10
2008,08,31,13,14,16.10
2008,08,31,13,15,16.10
2008,08,31,13,16,16.10
2008,08,31,13,17,16.10
2008,08,31,13,18,16.10
2008,08,31,13,19,16.10
2008,08,31,13,20,16.10
2008,08,31,13,21,16.00
2008,08,31,13,22,15.90
2008,08,31,13,23,16.00
2008,08,31,13,24,16.10
2008,08,31,13,25,16.10
2008,08,31,13,26,16.10
2008,08,31,13,27,16.10
2008,08,31,13,28,16.10
2008,08,31,13,29,16.10
2008,08,31,13,30,16.10
2008,08,31,13,31,16.10
2008,08,31,13,32,16.20
2008,08,31,13,33,16.30
2008,08,31,13,34,16.30
2008,08,31,13,35,16.40
2008,08,31,13,36,16.50
2008,08,31,13,37,16.60
2008,08,31,13,38,16.60
2008,08,31,13,39,16.70
2008,08,31,13,40,16.70
2008,08,31,13,41,16.70
2008,08,31,13,42,16.70
2008,08,31,13,43,16.80
2008,08,31,13,44,16.90
2008,08,31,13,45,16.90
2008,08,31,13,46,17.00
2008,08,31,13,47,17.00
2008,08,31,13,48,17.10
2008,08,31,13,49,17.20
2008,08,31,13,50,17.20
2008,08,31,13,51,17.30
2008,08,31,13,52,17.30
2008,08,31,13,53,17.30
2008,08,31,13,54,17.30
2008,08,31,13,55,17.40
2008,08,31,13,56,17.50
2008,08,31,13,57,17.60
2008,08,31,13,58,17.70
2008,08,31,13,59,17.70
2008,08,31,14,00,17.70
2008,08,31,14,01,17.70
2008,08,31,14,02,17.70
2008,08,31,14,03,17.70
2008,08,31,14,04,17.80
2008,08,31,14,05,17.90
2008,08,31,14,06,18.10
2008,08,31,14,07,18.10
2008,08,31,14,08,18.20
2008,08,31,14,09,18.20
2008,08,31,14,10,18.20
2008,08,31,14,11,18.20
2008,08,31,14,12,18.20
2008,08,31,14,13,18.20
2008,08,31,14,14,18.20
2008,08,31,14,15,18.10
2008,08,31,14,16,17.90
2008,08,31,14,17,17.90
2008,08,31,14,18,17.80
2008,08,31,14,19,17.80
2008,08,31,14,20,17.80
2008,08,31,14,21,17.80
2008,08,31,14,22,17.80
2008,08,31,14,23,17.80
2008,08,31,14,24,17.70
2008,08,31,14,25,17.70
2008,08,31,14,26,17.70
2008,08,31,14,27,17.70
2008,08,31,14,28,17.80
2008,08,31,14,29,17.80
2008,08,31,14,30,17.90
2008,08,31,14,31,17.90
2008,08,31,14,32,17.80
2008,08,31,14,33,17.90
2008,08,31,14,34,18.00
2008,08,31,14,35,18.10
2008,08,31,14,36,18.10
2008,08,31,14,37,18.10
2008,08,31,14,38,18.10
2008,08,31,14,39,18.10
2008,08,31,14,40,18.20
2008,08,31,14,41,18.30
2008,08,31,14,42,18.30
2008,08,31,14,43,18.40
2008,08,31,14,44,18.40
2008,08,31,14,45,18.40
2008,08,31,14,46,18.40
2008,08,31,14,47,18.50
2008,08,31,14,48,18.50
2008,08,31,14,49,18.60
2008,08,31,14,50,18.70
2008,08,31,14,51,18.70
2008,08,31,14,52,18.60
2008,08,31,14,53,18.50
2008,08,31,14,54,18.40
2008,08,31,14,55,18.40
2008,08,31,14,56,18.50
2008,08,31,14,57,18.60
2008,08,31,14,58,18.60
2008,08,31,14,59,18.60
2008,08,31,15,00,18.60
2008,08,31,15,01,18.70
2008,08,31,15,02,18.70
2008,08,31,15,03,18.70
2008,08,31,15,04,18.70
2008,08,31,15,05,18.70
2008,08,31,15,06,18.60
2008,08,31,15,07,18.60
2008,08,31,15,08,18.50
2008,08,31,15,09,18.40
2008,08,31,15,10,18.20
2008,08,31,15,11,18.20
2008,08,31,15,12,18.20
2008,08,31,15,13,18.20
2008,08,31,15,14,18.20
2008,08,31,15,15,18.30
2008,08,31,15,16,18.40
2008,08,31,15,17,18.40
2008,08,31,15,18,18.40
2008,08,31,15,19,18.50
2008,08,31,15,20,18.60
2008,08,31,15,21,18.70
2008,08,31,15,22,18.80
2008,08,31,15,23,18.70
2008,08,31,15,24,18.60
2008,08,31,15,25,18.50
2008,08,31,15,26,18.40
2008,08,31,15,27,18.20
2008,08,31,15,28,18.20
2008,08,31,15,29,18.20
2008,08,31,15,30,18.20
2008,08,31,15,31,18.20
2008,08,31,15,32,18.20
2008,08,31,15,33,18.20
2008,08,31,15,34,18.20
2008,08,31,15,35,18.20
2008,08,31,15,36,18.30
2008,08,31,15,37,18.20
2008,08,31,15,38,18.30
2008,08,31,15,39,18.30
2008,08,31,15,40,18.40
2008,08,31,15,41,18.50
2008,08,31,15,42,18.60
2008,08,31,15,43,18.60
2008,08,31,15,44,18.70
2008,08,31,15,45,18.80
2008,08,31,15,46,18.70
2008,08,31,15,47,18.70
2008,08,31,15,48,18.70
2008,08,31,15,49,18.70
2008,08,31,15,50,18.70
2008,08,31,15,51,18.70
2008,08,31,15,52,18.70
2008,08,31,15,53,18.70
2008,08,31,15,54,18.70
2008,08,31,15,55,18.70
2008,08,31,15,56,18.70
2008,08,31,15,57,18.70
2008,08,31,15,58,18.80
2008,08,31,15,59,18.90
2008,08,31,16,00,18.90
2008,08,31,16,01,19.00
2008,08,31,16,02,19.10
2008,08,31,16,03,19.20
2008,08,31,16,04,19.40
2008,08,31,16,05,19.40
2008,08,31,16,06,19.40
2008,08,31,16,07,19.30
2008,08,31,16,08,19.20
2008,08,31,16,09,19.10
2008,08,31,16,10,19.00
2008,08,31,16,11,18.80
2008,08,31,16,12,18.60
2008,08,31,16,13,18.40
2008,08,31,16,14,18.20
2008,08,31,16,15,18.10
2008,08,31,16,16,17.90
2008,08,31,16,17,17.80
2008,08,31,16,18,17.70
2008,08,31,16,19,17.70
2008,08,31,16,20,17.70
2008,08,31,16,21,17.70
2008,08,31,16,22,17.60
2008,08,31,16,23,17.40
2008,08,31,16,24,17.30
2008,08,31,16,25,17.30
2008,08,31,16,26,17.30
2008,08,31,16,27,17.30
2008,08,31,16,28,17.50
2008,08,31,16,29,17.50
2008,08,31,16,30,17.60
2008,08,31,16,31,17.50
2008,08,31,16,32,17.50
2008,08,31,16,33,17.50
2008,08,31,16,34,17.40
2008,08,31,16,35,17.40
2008,08,31,16,36,17.40
2008,08,31,16,37,17.30
2008,08,31,16,38,17.30
2008,08,31,16,39,17.30
2008,08,31,16,40,17.30
2008,08,31,16,41,17.30
2008,08,31,16,42,17.20
2008,08,31,16,43,17.10
2008,08,31,16,44,17.00
2008,08,31,16,45,16.90
2008,08,31,16,46,16.90
2008,08,31,16,47,16.90
2008,08,31,16,48,16.90
2008,08,31,16,49,16.90
2008,08,31,16,50,16.90
2008,08,31,16,51,17.00
2008,08,31,16,52,17.00
2008,08,31,16,53,17.10
2008,08,31,16,54,17.10
2008,08,31,16,55,17.10
2008,08,31,16,56,17.00
2008,08,31,16,57,17.00
2008,08,31,16,58,17.00
2008,08,31,16,59,17.00
2008,08,31,17,00,17.00
2008,08,31,17,01,16.90
2008,08,31,17,02,16.80
2008,08,31,17,03,16.70
2008,08,31,17,04,16.70
2008,08,31,17,05,16.60
2008,08,31,17,06,16.50
2008,08,31,17,07,16.40
2008,08,31,17,08,16.40
2008,08,31,17,09,16.40
2008,08,31,17,10,16.40
2008,08,31,17,11,16.40
2008,08,31,17,12,16.40
2008,08,31,17,13,16.40
2008,08,31,17,14,16.40
2008,08,31,17,15,16.40
2008,08,31,17,16,16.40
2008,08,31,17,17,16.40
2008,08,31,17,18,16.40
2008,08,31,17,19,16.40
2008,08,31,17,20,16.40
2008,08,31,17,21,16.40
2008,08,31,17,22,16.40
2008,08,31,17,23,16.40
2008,08,31,17,24,16.40
2008,08,31,17,25,16.40
2008,08,31,17,26,16.40
2008,08,31,17,27,16.40
2008,08,31,17,28,16.40
2008,08,31,17,29,16.40
2008,08,31,17,30,16.40
2008,08,31,17,31,16.40
2008,08,31,17,32,16.40
2008,08,31,17,33,16.60
2008,08,31,17,34,16.60
2008,08,31,17,35,16.70
2008,08,31,17,36,16.70
2008,08,31,17,37,16.70
2008,08,31,17,38,16.70
2008,08,31,17,39,16.70
2008,08,31,17,40,16.70
2008,08,31,17,41,16.70
2008,08,31,17,42,16.70
2008,08,31,17,43,16.70
2008,08,31,17,44,16.70
2008,08,31,17,45,16.70
2008,08,31,17,46,16.70
2008,08,31,17,47,16.70
2008,08,31,17,48,16.60
2008,08,31,17,49,16.60
2008,08,31,17,50,16.60
2008,08,31,17,51,16.60
2008,08,31,17,52,16.60
2008,08,31,17,53,16.70
2008,08,31,17,54,16.70
2008,08,31,17,55,16.80
2008,08,31,17,56,16.80
2008,08,31,17,57,16.80
2008,08,31,17,58,16.90
2008,08,31,17,59,16.90
2008,08,31,18,00,17.00
2008,08,31,18,01,17.20
2008,08,31,18,02,17.20
2008,08,31,18,03,17.20
2008,08,31,18,04,17.20
2008,08,31,18,05,17.10
2008,08,31,18,06,17.00
2008,08,31,18,07,16.90
2008,08,31,18,08,16.90
2008,08,31,18,09,16.80
2008,08,31,18,10,16.70
2008,08,31,18,11,16.70
2008,08,31,18,12,16.60
2008,08,31,18,13,16.50
2008,08,31,18,14,16.40
2008,08,31,18,15,16.40
2008,08,31,18,16,16.30
2008,08,31,18,17,16.20
2008,08,31,18,18,16.20